| time (UTC) | temp C | wind direction | speed KPH | gust KPH | rain 1hr cm | rain 24hr cm | rain mn cm | humidity % | barometer mb |
| 20260503013001 | 5 | 251 | 1.6 | 4.8 | 0.00 | 0.00 | 0.00 | 76 | 1015.9 |
| 20260503011501 | 5 | 220 | 1.6 | 9.7 | 0.00 | 0.00 | 0.00 | 76 | 1015.9 |
| 20260503010004 | 5 | 244 | 1.6 | 4.8 | 0.00 | 0.00 | 0.00 | 76 | 1015.9 |
| 20260503004501 | 5 | 201 | 3.2 | 6.4 | 0.00 | 0.00 | 0.00 | 75 | 1015.7 |
| 20260503001501 | 5 | 263 | 3.2 | 11.3 | 0.00 | 0.00 | 0.00 | 75 | 1015.5 |
| 20260503000005 | 5 | 240 | 3.2 | 9.7 | 0.00 | 0.00 | 0.00 | 75 | 1015.3 |
| 20260502234502 | 5 | 277 | 3.2 | 12.9 | 0.00 | 0.00 | 0.00 | 74 | 1015.4 |
| 20260502233001 | 5 | 240 | 3.2 | 12.9 | 0.00 | 0.00 | 0.00 | 75 | 1015.4 |
| 20260502231502 | 5 | 251 | 3.2 | 11.3 | 0.00 | 0.00 | 0.00 | 75 | 1015.3 |
| 20260502230004 | 5 | 209 | 4.8 | 9.7 | 0.00 | 0.00 | 0.00 | 75 | 1015.3 |
| 20260502224501 | 5 | 244 | 4.8 | 9.7 | 0.00 | 0.00 | 0.00 | 75 | 1015.3 |
| 20260502223001 | 5 | 258 | 6.4 | 12.9 | 0.00 | 0.00 | 0.00 | 75 | 1015.3 |
| 20260502221501 | 5 | 268 | 8.0 | 19.3 | 0.00 | 0.00 | 0.00 | 73 | 1015.3 |
| 20260502220007 | 5 | 279 | 4.8 | 16.1 | 0.00 | 0.00 | 0.00 | 73 | 1015.3 |
| 20260502214501 | 6 | 268 | 8.0 | 17.7 | 0.00 | 0.05 | 0.00 | 72 | 1015.2 |
| 20260502213001 | 6 | 224 | 4.8 | 14.5 | 0.00 | 0.05 | 0.00 | 71 | 1015.1 |
| 20260502211501 | 6 | 269 | 6.4 | 20.9 | 0.00 | 0.05 | 0.00 | 69 | 1015.2 |
| 20260502210004 | 6 | 266 | 6.4 | 14.5 | 0.00 | 0.05 | 0.00 | 64 | 1015.0 |
| 20260502203001 | 6 | 262 | 4.8 | 12.9 | 0.00 | 0.08 | 0.00 | 66 | 1015.0 |
| 20260502201501 | 7 | 241 | 4.8 | 16.1 | 0.00 | 0.08 | 0.00 | 66 | 1015.1 |
| 20260502200006 | 7 | 265 | 8.0 | 19.3 | 0.00 | 0.08 | 0.00 | 65 | 1015.1 |
| 20260502194501 | 7 | 337 | 8.0 | 16.1 | 0.00 | 0.13 | 0.00 | 66 | 1015.3 |
| 20260502193001 | 7 | 355 | 8.0 | 16.1 | 0.00 | 0.13 | 0.00 | 65 | 1015.3 |
| 20260502191501 | 7 | 271 | 8.0 | 17.7 | 0.00 | 0.13 | 0.00 | 66 | 1015.5 |
| 20260502190005 | 7 | 280 | 8.0 | 17.7 | 0.00 | 0.13 | 0.00 | 64 | 1015.4 |
| 20260502184502 | 7 | 279 | 8.0 | 20.9 | 0.00 | 0.15 | 0.00 | 62 | 1015.4 |
| 20260502183001 | 7 | 278 | 6.4 | 16.1 | 0.00 | 0.15 | 0.00 | 65 | 1015.4 |
| 20260502181501 | 7 | 292 | 6.4 | 32.2 | 0.00 | 0.15 | 0.00 | 60 | 1015.3 |
| 20260502163000 | 7 | 276 | 8.0 | 17.7 | 0.00 | 0.15 | 0.00 | 56 | 1015.2 |
| 20260502123000 | 3 | 221 | 4.8 | 12.9 | 0.00 | 0.15 | 0.00 | 83 | 1016.2 |
| 20260502114459 | 2 | 216 | 6.4 | 16.1 | 0.00 | 0.15 | 0.00 | 87 | 1016.3 |
| 20260502113000 | 2 | 239 | 6.4 | 17.7 | 0.00 | 0.15 | 0.00 | 88 | 1016.3 |
| 20260502110005 | 1 | 219 | 1.6 | 6.4 | 0.00 | 0.15 | 0.00 | 91 | 1016.0 |
| 20260502102959 | 1 | 163 | 0.0 | 1.6 | 0.00 | 0.15 | 0.00 | 92 | 1015.8 |
| 20260502101459 | 0 | 88 | 0.0 | 1.6 | 0.00 | 0.15 | 0.00 | 92 | 1015.6 |
| 20260502091459 | 1 | 238 | 0.0 | 1.6 | 0.00 | 0.15 | 0.00 | 88 | 1015.4 |
| 20260502070004 | 3 | 284 | 4.8 | 12.9 | 0.00 | 0.15 | 0.00 | 82 | 1014.4 |
| 20260502062959 | 4 | 274 | 4.8 | 11.3 | 0.00 | 0.15 | 0.00 | 83 | 1014.3 |
| 20260502054459 | 5 | 214 | 3.2 | 6.4 | 0.00 | 0.15 | 0.00 | 87 | 1014.2 |
| 20260502052959 | 5 | 277 | 0.0 | 3.2 | 0.00 | 0.15 | 0.00 | 89 | 1014.2 |
| 20260502051459 | 5 | 277 | 0.0 | 1.6 | 0.00 | 0.15 | 0.00 | 89 | 1014.1 |
| 20260502044458 | 5 | 277 | 0.0 | 0.0 | 0.00 | 0.15 | 0.00 | 88 | 1014.2 |
| 20260502042958 | 5 | 277 | 0.0 | 0.0 | 0.00 | 0.15 | 0.00 | 89 | 1014.1 |
| 20260502041458 | 5 | 277 | 0.0 | 1.6 | 0.00 | 0.15 | 0.00 | 88 | 1014.3 |
| 20260502040007 | 5 | 277 | 0.0 | 1.6 | 0.00 | 0.15 | 0.00 | 89 | 1014.3 |
| 20260502034502 | 5 | 277 | 1.6 | 4.8 | 0.00 | 0.15 | 0.15 | 89 | 1014.2 |
| 20260502031502 | 5 | 277 | 4.8 | 14.5 | 0.00 | 0.15 | 0.15 | 94 | 1014.3 |
| 20260502030005 | 5 | 268 | 1.6 | 4.8 | 0.00 | 0.15 | 0.15 | 95 | 1014.3 |
| 20260502024502 | 5 | 200 | 0.0 | 1.6 | 0.00 | 0.15 | 0.15 | 95 | 1014.2 |
| 20260502021501 | 5 | 200 | 0.0 | 0.0 | 0.00 | 0.15 | 0.15 | 95 | 1014.2 |
| 20260502020005 | 5 | 200 | 0.0 | 0.0 | 0.00 | 0.15 | 0.15 | 94 | 1014.2 |
| 20260502014502 | 5 | 200 | 0.0 | 0.0 | 0.00 | 0.15 | 0.15 | 94 | 1014.2 |